Location: Fredericksburg
(30.2750°N, 98.8720°W)
Time: 02:09:57
(UTC-05:00)

PCSat - Visible Passes

Search period start: 22 August 2017 00:00
Search period end: 01 September 2017 00:00
Orbit: 785 x 795 km, 67.1° (Epoch: 21 August)

Date Brightness Start Highest point End Pass type
(mag) Time Alt. Az. Time Alt. Az. Time Alt. Az.
22 Aug 12.1 23:03:40 11° NNE 23:03:40 11° NNE 23:03:49 10° NNE visible
23 Aug 11.9 22:32:28 12° NNE 22:32:28 12° NNE 22:32:53 10° NNE visible
24 Aug 12.3 00:13:04 13° NNW 00:13:04 13° NNW 00:14:23 10° NNW visible
24 Aug 11.5 22:00:42 16° NE 22:00:42 16° NE 22:01:47 10° NE visible
24 Aug 11.9 23:41:15 20° NW 23:41:15 20° NW 23:44:18 10° N visible
25 Aug 10.5 21:27:03 26° E 21:27:03 26° E 21:30:31 10° NE visible
25 Aug 11.3 23:07:11 23° W 23:09:12 29° WNW 23:13:55 10° N visible
26 Aug 10.8 20:51:27 10° SSE 20:55:13 19° ESE 20:58:59 10° ENE visible
26 Aug 10.7 22:33:08 10° SW 22:38:13 42° WNW 22:43:21 10° N visible
27 Aug 11.2 20:22:11 10° SE 20:24:30 13° ESE 20:26:49 10° ENE visible
27 Aug 10.0 22:01:57 10° SW 22:07:17 60° WNW 22:12:40 10° NNE visible
28 Aug 9.5 21:30:59 10° SSW 21:36:23 87° WNW 21:41:51 10° NNE visible
29 Aug 12.3 06:25:28 10° N 06:29:42 23° ENE 06:33:55 10° ESE visible
29 Aug 9.5 21:00:13 10° SSW 21:05:33 65° ESE 21:10:55 10° NNE visible
29 Aug 12.5 22:46:29 10° W 22:49:21 14° NW 22:52:14 10° NNW visible
30 Aug 12.5 05:55:18 10° NNE 05:58:38 16° NE 06:01:58 10° E visible
30 Aug 9.9 20:29:38 10° S 20:34:44 44° ESE 20:39:51 10° NE visible
30 Aug 12.1 22:14:21 10° WSW 22:18:16 20° NW 22:22:13 10° N visible
31 Aug 12.8 05:25:45 10° NNE 05:27:31 11° NE 05:29:17 10° ENE visible
31 Aug 11.6 21:42:38 10° WSW 21:47:14 28° WNW 21:51:51 10° N visible
